period_start,C,m1,H,J0,J1,J2,J3,J4,J5,JA,JB,JC,JD,JJ,JK,JN,#
2018-02-21 00:01:37,0.12,2.07,0.00,18.62,21.32,24.68,14.00,51.48,1005.41,2050.05,2688.97,2604.87,2907.21,599.90,598.29,23.38,0000 0000 0000 0000 000000
2018-02-21 00:06:38,0.11,2.07,0.00,18.63,21.32,24.69,14.03,51.42,1005.46,2050.04,2687.01,2603.50,2905.54,600.15,598.53,23.43,0000 0000 0000 0000 000000
2018-02-21 00:11:39,0.11,2.08,0.00,18.63,21.33,24.70,14.08,51.27,1005.60,2050.00,2685.11,2602.14,2903.87,600.48,598.88,23.48,0000 0000 0000 0000 000000
2018-02-21 00:16:41,0.12,2.08,0.00,18.62,21.34,24.72,14.05,51.46,1005.55,2050.02,2683.15,2600.79,2902.31,600.17,598.55,23.53,0000 0000 0000 0000 000000
2018-02-21 00:21:42,0.12,2.09,0.00,18.61,21.34,24.72,14.08,51.43,1005.67,2050.01,2681.20,2599.48,2900.65,599.84,598.33,23.58,0000 0000 0000 0000 000000
2018-02-21 00:26:43,0.11,2.10,0.00,18.62,21.34,24.71,14.05,51.50,1005.86,2050.00,2679.19,2598.02,2898.95,599.66,598.35,23.63,0000 0000 0000 0000 000000
2018-02-21 00:31:45,0.12,2.10,0.00,18.61,21.35,24.71,14.02,51.33,1005.87,2050.00,2677.22,2596.71,2897.40,599.57,598.18,23.68,0000 0000 0000 0000 000000
2018-02-21 00:36:46,0.12,2.11,0.00,18.63,21.37,24.71,14.06,51.24,1005.87,2050.02,2675.23,2595.38,2895.70,599.72,598.28,23.73,0000 0000 0000 0000 000000
2018-02-21 00:41:48,0.11,2.11,0.00,18.64,21.37,24.72,14.06,51.47,1005.87,2050.00,2673.31,2593.96,2894.09,600.01,598.60,23.78,0000 0000 0000 0000 000000
2018-02-21 00:46:49,0.12,2.12,0.00,18.64,21.37,24.73,14.08,51.27,1005.87,2050.00,2671.34,2592.64,2892.49,600.45,598.96,23.83,0000 0000 0000 0000 000000
2018-02-21 00:51:50,0.12,2.13,0.00,18.66,21.37,24.75,14.08,51.50,1005.88,2050.00,2669.34,2591.35,2890.83,600.37,598.87,23.88,0000 0000 0000 0000 000000
2018-02-21 00:56:52,0.11,2.13,0.00,18.67,21.38,24.75,14.01,51.40,1005.99,2050.00,2667.34,2589.95,2889.28,600.03,598.63,23.93,0000 0000 0000 0000 000000
2018-02-21 01:01:53,0.13,2.14,0.00,18.67,21.39,24.73,14.02,51.40,1006.02,2050.00,2665.30,2588.60,2887.61,600.12,598.67,23.98,0000 0000 0000 0000 000000
2018-02-21 01:06:55,0.10,2.14,0.00,18.69,21.39,24.75,14.10,51.43,1006.06,2050.00,2663.38,2587.37,2886.05,599.90,598.46,24.03,0000 0000 0000 0000 000000
2018-02-21 01:11:56,0.11,2.15,0.00,18.70,21.39,24.76,14.07,51.47,1006.14,2049.99,2661.48,2586.07,2884.54,599.89,598.48,24.08,0000 0000 0000 0000 000000
2018-02-21 01:16:57,0.12,2.16,0.00,18.72,21.40,24.77,14.06,51.47,1006.09,2049.99,2659.54,2584.78,2882.91,599.99,598.51,24.13,0000 0000 0000 0000 000000
2018-02-21 01:21:58,0.11,2.16,0.00,18.73,21.42,24.77,14.08,51.48,1006.16,2049.99,2657.62,2583.57,2881.37,600.21,598.63,24.18,0000 0000 0000 0000 000000
2018-02-21 01:26:59,0.12,2.17,0.00,18.73,21.42,24.77,14.15,51.53,1006.14,2049.98,2655.63,2582.15,2879.72,600.22,598.74,24.23,0000 0000 0000 0000 000000
2018-02-21 01:32:01,0.11,2.18,0.00,18.74,21.42,24.80,14.05,51.43,1006.35,2049.98,2653.65,2580.78,2878.25,600.04,598.57,24.28,0000 0000 0000 0000 000000
2018-02-21 01:37:02,0.12,2.18,0.00,18.76,21.44,24.81,14.02,51.35,1006.36,2049.98,2651.71,2579.51,2876.70,599.74,598.41,24.34,0000 0000 0000 0000 000000
2018-02-21 01:42:04,0.10,2.19,0.00,18.75,21.44,24.79,14.01,51.45,1006.36,2049.97,2649.86,2578.32,2875.25,599.59,598.31,24.39,0000 0000 0000 0000 000000
2018-02-21 01:47:05,0.11,2.19,0.00,18.74,21.44,24.79,14.03,51.52,1006.37,2049.97,2647.96,2577.06,2873.71,599.73,598.36,24.44,0000 0000 0000 0000 000000
2018-02-21 01:52:06,0.12,2.20,0.00,18.75,21.46,24.81,14.03,51.35,1006.50,2049.94,2646.03,2575.77,2872.15,599.87,598.53,24.49,0000 0000 0000 0000 000000
2018-02-21 01:57:07,0.10,2.20,0.00,18.77,21.47,24.82,14.05,51.47,1006.56,2049.79,2644.05,2574.44,2870.53,599.98,598.53,24.54,0000 0000 0000 0000 000000
2018-02-21 02:02:08,0.11,2.21,0.00,18.79,21.47,24.83,14.05,51.47,1006.74,2049.84,2642.20,2573.23,2868.99,599.77,598.54,24.59,0000 0000 0000 0000 000000
2018-02-21 02:07:10,0.10,2.22,0.00,18.80,21.49,24.83,14.06,51.44,1006.85,2049.77,2640.30,2571.96,2867.54,600.05,598.94,24.64,0000 0000 0000 0000 000000
2018-02-21 02:12:11,0.09,2.22,0.00,18.80,21.49,24.83,14.14,51.40,1006.85,2049.58,2638.32,2570.66,2865.92,600.29,599.13,24.69,0000 0000 0000 0000 000000
2018-02-21 02:17:13,0.08,2.23,0.00,18.82,21.50,24.84,14.05,51.46,1006.87,2049.26,2636.46,2569.41,2864.40,600.24,599.06,24.74,0000 0000 0000 0000 000000
2018-02-21 02:22:14,0.10,2.23,0.00,18.85,21.52,24.87,14.04,51.45,1006.85,2049.10,2634.64,2568.14,2862.81,599.97,598.68,24.79,0000 0000 0000 0000 000000
2018-02-21 02:27:16,0.12,2.24,0.00,18.86,21.52,24.88,14.05,51.40,1006.91,2049.13,2632.83,2566.89,2861.37,599.93,598.60,24.84,0000 0000 0000 0000 000000
2018-02-21 02:32:17,0.12,2.24,0.00,18.89,21.54,24.90,13.98,51.26,1006.92,2049.07,2631.00,2565.68,2859.83,599.75,598.55,24.89,0000 0000 0000 0000 000000
2018-02-21 02:37:19,0.10,2.25,0.00,18.93,21.54,24.89,13.98,51.33,1006.94,2049.05,2629.11,2564.45,2858.37,599.93,598.42,24.94,0000 0000 0000 0000 000000
2018-02-21 02:42:20,0.11,2.25,0.00,18.97,21.56,24.91,14.04,51.41,1006.94,2049.04,2627.21,2563.14,2856.83,599.80,598.32,24.99,0000 0000 0000 0000 000000
2018-02-21 02:47:21,0.12,2.26,0.00,18.97,21.57,24.92,14.08,51.49,1007.17,2049.01,2625.32,2561.78,2855.24,600.11,598.75,25.04,0000 0000 0000 0000 000000
2018-02-21 02:52:22,0.12,2.26,0.00,18.97,21.58,24.94,14.14,51.47,1007.21,2049.00,2623.49,2560.54,2853.63,600.39,599.05,25.09,0000 0000 0000 0000 000000
2018-02-21 02:57:25,0.10,2.27,0.00,19.01,21.59,24.96,14.08,51.42,1007.27,2049.00,2621.78,2559.34,2852.20,599.96,598.62,25.14,0000 0000 0000 0000 000000
2018-02-21 03:02:26,0.10,2.28,0.00,19.03,21.61,24.97,13.99,51.41,1007.31,2049.00,2619.99,2558.29,2850.64,599.20,597.78,25.19,0000 0000 0000 0000 000000
2018-02-21 03:07:28,0.10,2.28,0.00,19.08,21.62,24.99,13.98,51.33,1007.34,2049.00,2618.17,2557.07,2849.19,599.83,598.38,25.24,0000 0000 0000 0000 000000
2018-02-21 03:12:30,0.12,2.29,0.00,19.11,21.64,25.01,13.98,51.33,1007.34,2049.00,2616.31,2555.82,2847.67,599.98,598.50,25.29,0000 0000 0000 0000 000000
2018-02-21 03:17:31,0.11,2.29,0.00,19.13,21.65,25.02,14.01,51.30,1007.34,2048.99,2614.43,2554.56,2846.06,600.12,598.55,25.34,0000 0000 0000 0000 000000
2018-02-21 03:22:32,0.11,2.30,0.00,19.15,21.67,25.05,14.13,51.27,1007.36,2048.98,2612.59,2553.34,2844.58,600.30,598.72,25.39,0000 0000 0000 0000 000000
2018-02-21 03:27:33,0.11,2.31,0.00,19.18,21.69,25.06,14.04,51.29,1007.46,2048.97,2610.69,2552.00,2843.03,600.05,598.46,25.44,0000 0000 0000 0000 000000
2018-02-21 03:32:34,0.13,2.31,0.00,19.22,21.71,25.09,14.04,51.32,1007.77,2048.97,2608.78,2550.68,2841.55,599.81,598.39,25.49,0000 0000 0000 0000 000000
2018-02-21 03:37:36,0.10,2.32,0.00,19.24,21.73,25.10,14.00,51.34,1007.83,2048.89,2606.92,2549.45,2840.01,599.82,598.20,25.54,0000 0000 0000 0000 000000
2018-02-21 03:42:37,0.07,2.32,0.00,19.27,21.75,25.13,14.13,51.27,1007.83,2048.66,2605.09,2548.23,2838.53,600.54,598.92,25.59,0000 0000 0000 0000 000000
2018-02-21 03:47:39,0.09,2.33,0.00,19.31,21.77,25.14,14.02,51.32,1007.93,2048.30,2603.26,2546.90,2836.97,600.06,598.46,25.64,0000 0000 0000 0000 000000
2018-02-21 03:52:40,0.10,2.33,0.00,19.34,21.79,25.17,13.99,51.23,1008.25,2048.12,2601.35,2545.63,2835.51,599.98,598.45,25.69,0000 0000 0000 0000 000000
2018-02-21 03:57:41,0.11,2.34,0.00,19.38,21.81,25.19,14.01,51.39,1008.30,2048.04,2599.47,2544.39,2833.98,600.04,598.48,25.74,0000 0000 0000 0000 000000
2018-02-21 04:02:42,0.11,2.34,0.00,19.43,21.84,25.22,14.06,51.19,1008.31,2048.03,2597.70,2543.10,2832.48,600.17,598.57,25.79,0000 0000 0000 0000 000000
2018-02-21 04:07:44,0.12,2.35,0.00,19.48,21.87,25.26,14.08,51.35,1008.31,2048.01,2595.87,2541.78,2830.90,600.00,598.23,25.84,0000 0000 0000 0000 000000
2018-02-21 04:12:45,0.12,2.35,0.00,19.51,21.89,25.28,14.05,51.31,1008.31,2048.00,2593.97,2540.49,2829.35,600.15,598.38,25.89,0000 0000 0000 0000 000000
2018-02-21 04:17:46,0.11,2.36,0.00,19.54,21.92,25.33,14.06,51.39,1008.32,2047.99,2592.03,2539.11,2827.73,600.08,598.33,25.94,0000 0000 0000 0000 000000
2018-02-21 04:22:48,0.11,2.37,0.00,19.57,21.95,25.35,14.03,51.31,1008.33,2047.95,2590.42,2537.82,2826.17,599.94,598.03,25.99,0000 0000 0000 0000 000000
2018-02-21 04:27:49,0.09,2.37,0.00,19.61,21.98,25.39,14.01,51.42,1008.47,2047.82,2588.72,2536.65,2824.70,599.76,597.92,26.04,0000 0000 0000 0000 000000
2018-02-21 04:32:51,0.06,2.37,0.00,19.64,22.01,25.43,14.04,51.29,1008.69,2047.34,2586.84,2535.40,2823.19,599.88,598.14,26.09,0000 0000 0000 0000 000000
2018-02-21 04:37:52,0.09,2.38,0.00,19.66,22.04,25.47,14.08,51.36,1008.72,2047.04,2585.03,2534.03,2821.58,600.24,598.40,26.14,0000 0000 0000 0000 000000
2018-02-21 04:42:54,0.12,2.38,0.00,19.69,22.07,25.49,14.10,51.52,1008.73,2047.01,2583.31,2532.75,2820.06,599.78,597.89,26.19,0000 0000 0000 0000 000000
2018-02-21 04:47:55,0.11,2.39,0.00,19.71,22.10,25.52,14.01,51.44,1008.78,2047.00,2581.54,2531.54,2818.62,599.83,597.89,26.24,0000 0000 0000 0000 000000
2018-02-21 04:52:56,0.11,2.40,0.00,19.75,22.13,25.56,14.01,51.39,1008.80,2047.00,2579.69,2530.24,2817.02,600.01,598.07,26.29,0000 0000 0000 0000 000000
2018-02-21 04:57:57,0.12,2.40,0.00,19.77,22.16,25.58,13.95,51.37,1008.80,2047.00,2577.76,2528.88,2815.55,599.89,597.85,26.34,0000 0000 0000 0000 000000
2018-02-21 05:02:59,0.11,2.41,0.00,19.81,22.19,25.63,14.04,51.38,1008.80,2047.00,2575.97,2527.64,2814.00,600.12,598.02,26.39,0000 0000 0000 0000 000000
2018-02-21 05:08:00,0.11,2.42,0.00,19.84,22.23,25.65,14.01,51.29,1008.83,2047.00,2574.22,2526.35,2812.53,599.99,597.88,26.44,0000 0000 0000 0000 000000
2018-02-21 05:13:02,0.11,2.42,0.00,19.87,22.26,25.66,14.00,51.32,1008.98,2046.99,2572.37,2525.00,2811.01,600.24,598.02,26.49,0000 0000 0000 0000 000000
2018-02-21 05:18:03,0.11,2.43,0.00,19.90,22.29,25.71,13.99,51.40,1009.12,2046.88,2570.48,2523.68,2809.44,599.78,597.68,26.54,0000 0000 0000 0000 000000
2018-02-21 05:23:04,0.05,2.43,0.00,19.91,22.32,25.74,13.99,51.42,1009.28,2046.38,2568.72,2522.43,2807.86,599.73,597.71,26.59,0000 0000 0000 0000 000000
2018-02-21 05:28:05,0.09,2.43,0.00,19.93,22.35,25.77,13.99,51.41,1009.26,2046.12,2567.04,2521.20,2806.38,600.04,597.97,26.64,0000 0000 0000 0000 000000
2018-02-21 05:33:06,0.12,2.44,0.00,19.95,22.38,25.81,14.01,51.30,1009.29,2046.03,2565.28,2519.85,2804.78,599.93,597.78,26.69,0000 0000 0000 0000 000000
2018-02-21 05:38:08,0.11,2.45,0.00,19.99,22.42,25.84,14.05,51.44,1009.29,2046.00,2563.53,2518.57,2803.29,600.05,597.87,26.74,0000 0000 0000 0000 000000
2018-02-21 05:43:09,0.11,2.45,0.00,20.01,22.45,25.88,13.95,51.26,1009.29,2045.99,2561.70,2517.32,2801.74,599.89,597.66,26.79,0000 0000 0000 0000 000000
2018-02-21 05:48:10,0.11,2.46,0.00,20.02,22.48,25.90,14.01,51.40,1009.30,2045.98,2559.86,2515.99,2800.31,599.83,597.54,26.84,0000 0000 0000 0000 000000
2018-02-21 05:53:11,0.11,2.46,0.00,20.04,22.51,25.94,14.02,51.35,1009.29,2045.97,2558.36,2514.74,2798.78,600.15,598.03,26.89,0000 0000 0000 0000 000000
2018-02-21 05:58:12,0.09,2.47,0.00,20.06,22.54,25.97,14.01,51.33,1009.32,2045.84,2556.59,2513.51,2797.26,599.99,597.63,26.94,0000 0000 0000 0000 000000
2018-02-21 06:03:14,0.07,2.47,0.00,20.10,22.58,26.01,14.06,51.38,1009.33,2045.42,2554.68,2512.27,2795.73,600.03,597.64,26.99,0000 0000 0000 0000 000000
2018-02-21 06:08:15,0.09,2.48,0.00,20.12,22.60,26.04,14.01,51.40,1009.37,2045.06,2552.81,2510.86,2794.28,599.99,597.53,27.04,0000 0000 0000 0000 000000
2018-02-21 06:13:17,0.12,2.48,0.00,20.11,22.63,26.07,14.02,51.43,1009.61,2045.02,2551.02,2509.58,2792.69,599.79,597.40,27.10,0000 0000 0000 0000 000000
2018-02-21 06:18:18,0.09,2.49,0.00,20.14,22.67,26.10,14.03,51.29,1009.67,2045.01,2549.38,2508.41,2791.29,600.05,597.78,27.15,0000 0000 0000 0000 000000
2018-02-21 06:23:20,0.11,2.49,0.00,20.16,22.70,26.12,14.07,51.53,1009.77,2045.00,2547.71,2507.19,2789.77,600.27,598.00,27.20,0000 0000 0000 0000 000000
2018-02-21 06:28:21,0.11,2.50,0.00,20.18,22.73,26.15,14.04,51.42,1009.78,2044.99,2546.02,2505.93,2788.33,599.77,597.46,27.25,0000 0000 0000 0000 000000
2018-02-21 06:33:22,0.12,2.51,0.00,20.19,22.76,26.20,14.08,51.40,1009.79,2044.97,2544.20,2504.70,2786.82,600.24,597.92,27.30,0000 0000 0000 0000 000000
2018-02-21 06:38:24,0.09,2.51,0.00,20.22,22.79,26.22,13.99,51.43,1009.87,2044.79,2542.40,2503.46,2785.34,599.93,597.63,27.35,0000 0000 0000 0000 000000
2018-02-21 06:43:25,0.07,2.52,0.00,20.21,22.82,26.26,14.08,51.48,1010.15,2044.31,2540.57,2502.06,2783.77,600.18,598.03,27.40,0000 0000 0000 0000 000000
2018-02-21 06:48:26,0.10,2.52,0.00,20.21,22.85,26.27,14.08,51.42,1010.27,2044.06,2538.80,2500.78,2782.26,600.25,598.22,27.45,0000 0000 0000 0000 000000
2018-02-21 06:53:27,0.11,2.53,0.00,20.23,22.88,26.32,14.08,51.47,1010.27,2044.01,2537.12,2499.56,2780.75,600.01,597.89,27.50,0000 0000 0000 0000 000000
2018-02-21 06:58:28,0.10,2.53,0.00,20.24,22.91,26.34,14.14,51.49,1010.27,2044.00,2535.48,2498.37,2779.36,600.38,598.14,27.55,0000 0000 0000 0000 000000
2018-02-21 07:03:29,0.11,2.54,0.00,20.26,22.94,26.37,14.10,51.41,1010.28,2044.00,2533.84,2497.23,2777.90,600.31,598.14,27.60,0000 0000 0000 0000 000000
2018-02-21 07:08:30,0.10,2.54,0.00,20.29,22.98,26.41,14.11,51.43,1010.40,2043.99,2532.10,2496.00,2776.46,600.20,598.20,27.65,0000 0000 0000 0000 000000
2018-02-21 07:13:31,0.12,2.55,0.00,20.32,23.00,26.44,14.00,51.54,1010.48,2043.97,2530.53,2494.84,2774.90,600.05,597.85,27.70,0000 0000 0000 0000 000000
2018-02-21 07:18:32,0.09,2.55,0.00,20.34,23.03,26.46,14.08,51.47,1010.63,2043.79,2528.81,2493.67,2773.47,600.13,597.97,27.75,0000 0000 0000 0000 000000
2018-02-21 07:23:33,0.06,2.56,0.00,20.33,23.06,26.49,13.98,51.38,1010.75,2043.32,2527.14,2492.46,2771.97,599.76,597.74,27.80,0000 0000 0000 0000 000000
2018-02-21 07:28:35,0.08,2.56,0.00,20.34,23.09,26.51,14.05,51.43,1010.76,2043.05,2525.26,2491.21,2770.51,599.92,597.87,27.85,0000 0000 0000 0000 000000
2018-02-21 07:33:36,0.10,2.57,0.00,20.36,23.12,26.55,14.02,51.50,1010.80,2043.03,2523.66,2489.99,2769.11,599.91,597.95,27.90,0000 0000 0000 0000 000000
2018-02-21 07:38:37,0.12,2.57,0.00,20.37,23.14,26.57,14.06,51.40,1010.83,2043.00,2522.03,2488.82,2767.69,599.89,597.93,27.95,0000 0000 0000 0000 000000
2018-02-21 07:43:38,0.11,2.58,0.00,20.39,23.17,26.60,14.10,51.46,1011.08,2043.00,2520.34,2487.66,2766.35,600.25,598.36,28.00,0000 0000 0000 0000 000000
2018-02-21 07:48:40,0.11,2.58,0.00,20.39,23.20,26.61,14.05,51.52,1011.20,2043.00,2518.72,2486.49,2764.88,600.20,598.38,28.05,0000 0000 0000 0000 000000
2018-02-21 07:53:41,0.10,2.59,0.00,20.40,23.23,26.64,14.01,51.45,1011.24,2042.99,2517.15,2485.33,2763.54,599.92,598.03,28.10,0000 0000 0000 0000 000000
2018-02-21 07:58:42,0.10,2.59,0.00,20.43,23.25,26.67,14.00,51.48,1011.24,2042.96,2515.48,2484.05,2762.00,600.02,598.06,28.15,0000 0000 0000 0000 000000
2018-02-21 08:03:44,0.07,2.60,0.00,20.43,23.28,26.70,14.16,51.52,1011.28,2042.76,2513.98,2482.86,2760.64,600.17,598.20,28.20,0000 0000 0000 0000 000000
2018-02-21 08:08:45,0.07,2.60,0.00,20.43,23.30,26.72,13.98,51.44,1011.59,2042.20,2512.36,2481.71,2759.26,599.83,598.04,28.25,0000 0000 0000 0000 000000
2018-02-21 08:13:47,0.10,2.61,0.00,20.45,23.33,26.74,14.09,51.44,1011.72,2042.03,2510.65,2480.54,2757.84,600.33,598.54,28.30,0000 0000 0000 0000 000000
2018-02-21 08:18:48,0.11,2.61,0.00,20.49,23.35,26.77,14.07,51.37,1011.74,2042.00,2508.86,2479.36,2756.50,600.00,598.25,28.35,0000 0000 0000 0000 000000
2018-02-21 08:23:49,0.10,2.62,0.00,20.51,23.37,26.79,13.99,51.38,1011.92,2042.00,2507.10,2478.10,2755.06,599.87,598.22,28.40,0000 0000 0000 0000 000000
2018-02-21 08:28:51,0.11,2.62,0.00,20.52,23.40,26.82,14.15,51.28,1012.13,2042.00,2505.55,2476.99,2753.68,600.02,598.45,28.45,0000 0000 0000 0000 000000
2018-02-21 08:33:52,0.09,2.63,0.00,20.54,23.42,26.83,14.11,51.35,1012.12,2042.00,2504.18,2475.91,2752.45,600.28,598.38,28.50,0000 0000 0000 0000 000000
2018-02-21 08:38:53,0.11,2.63,0.00,20.55,23.45,26.87,14.04,51.47,1012.12,2041.99,2502.63,2474.73,2751.18,599.96,598.30,28.55,0000 0000 0000 0000 000000
2018-02-21 08:43:54,0.09,2.64,0.00,20.57,23.47,26.87,14.09,51.42,1012.22,2041.91,2501.01,2473.59,2749.83,599.99,598.48,28.60,0000 0000 0000 0000 000000
2018-02-21 08:48:55,0.08,2.64,0.00,20.57,23.49,26.91,14.04,51.29,1012.22,2041.60,2499.52,2472.52,2748.54,599.73,598.12,28.65,0000 0000 0000 0000 000000
2018-02-21 08:53:57,0.06,2.65,0.00,20.60,23.51,26.91,14.04,51.42,1012.22,2041.42,2498.00,2471.48,2747.36,599.81,598.21,28.70,0000 0000 0000 0000 000000
2018-02-21 08:58:58,0.08,2.65,0.00,20.61,23.53,26.93,13.96,51.35,1012.22,2041.09,2496.52,2470.32,2745.92,600.06,598.36,28.75,0000 0000 0000 0000 000000
2018-02-21 09:03:59,0.09,2.66,0.00,20.62,23.55,26.94,14.10,51.41,1012.22,2041.01,2495.10,2469.21,2744.60,599.94,598.31,28.80,0000 0000 0000 0000 000000
2018-02-21 09:09:01,0.10,2.66,0.00,20.62,23.57,26.96,14.02,51.39,1012.23,2041.00,2493.71,2468.17,2743.35,600.05,598.32,28.85,0000 0000 0000 0000 000000
2018-02-21 09:14:02,0.10,2.67,0.00,20.62,23.60,26.99,14.05,51.38,1012.22,2041.00,2492.10,2467.03,2742.00,600.08,598.29,28.90,0000 0000 0000 0000 000000
2018-02-21 09:19:03,0.11,2.67,0.00,20.62,23.61,27.00,14.09,51.50,1012.23,2041.00,2490.55,2465.94,2740.72,600.01,598.24,28.95,0000 0000 0000 0000 000000
2018-02-21 09:24:04,0.09,2.68,0.00,20.62,23.62,27.02,14.03,51.55,1012.27,2040.99,2489.21,2464.89,2739.50,599.97,598.26,29.00,0000 0000 0000 0000 000000
2018-02-21 09:29:06,0.10,2.68,0.00,20.63,23.64,27.04,14.09,51.48,1012.43,2040.97,2487.70,2463.83,2738.18,600.19,598.66,29.05,0000 0000 0000 0000 000000
2018-02-21 09:34:07,0.10,2.69,0.00,20.63,23.65,27.04,14.02,51.32,1012.70,2040.93,2486.25,2462.69,2736.91,599.75,598.29,29.10,0000 0000 0000 0000 000000
2018-02-21 09:39:09,0.09,2.69,0.00,20.61,23.67,27.05,14.04,51.45,1012.71,2040.79,2484.69,2461.66,2735.68,599.84,598.35,29.15,0000 0000 0000 0000 000000
2018-02-21 09:44:10,0.06,2.70,0.00,20.62,23.67,27.06,14.18,51.38,1012.71,2040.52,2483.32,2460.65,2734.47,600.21,598.68,29.20,0000 0000 0000 0000 000000
2018-02-21 09:49:11,0.07,2.70,0.00,20.62,23.69,27.06,14.18,51.50,1012.72,2040.27,2481.72,2459.59,2733.26,600.28,598.93,29.25,0000 0000 0000 0000 000000
2018-02-21 09:54:13,0.09,2.70,0.00,20.62,23.70,27.08,14.18,51.39,1012.78,2040.15,2480.38,2458.63,2732.04,600.09,598.68,29.30,0000 0000 0000 0000 000000
2018-02-21 09:59:14,0.09,2.71,0.00,20.62,23.71,27.08,14.04,51.38,1012.86,2040.04,2478.81,2457.55,2730.82,599.77,598.39,29.35,0000 0000 0000 0000 000000
2018-02-21 10:04:15,0.10,2.71,0.00,20.62,23.72,27.10,14.11,51.38,1013.16,2040.04,2477.31,2456.49,2729.57,599.97,598.76,29.40,0000 0000 0000 0000 000000
2018-02-21 10:09:17,0.09,2.72,0.00,20.62,23.72,27.10,14.11,51.50,1013.20,2040.02,2475.78,2455.49,2728.35,600.10,598.90,29.45,0000 0000 0000 0000 000000
2018-02-21 10:14:18,0.09,2.72,0.00,20.62,23.74,27.11,14.04,51.42,1013.20,2040.02,2474.30,2454.44,2727.18,600.09,598.94,29.50,0000 0000 0000 0000 000000
2018-02-21 10:19:20,0.10,2.73,0.00,20.62,23.75,27.12,14.11,51.42,1013.24,2040.02,2472.76,2453.49,2726.01,600.22,599.14,29.55,0000 0000 0000 0000 000000
2018-02-21 10:24:21,0.10,2.73,0.00,20.63,23.75,27.12,14.04,51.48,1013.32,2040.01,2471.33,2452.43,2724.77,600.16,599.04,29.60,0000 0000 0000 0000 000000
2018-02-21 10:29:22,0.09,2.74,0.00,20.64,23.76,27.12,14.11,51.38,1013.40,2040.00,2469.91,2451.52,2723.62,600.28,599.24,29.65,0000 0000 0000 0000 000000
2018-02-21 10:34:24,0.10,2.74,0.00,20.61,23.77,27.12,14.15,51.47,1013.54,2040.00,2468.53,2450.43,2722.37,600.08,599.15,29.70,0000 0000 0000 0000 000000
2018-02-21 10:39:25,0.09,2.75,0.00,20.61,23.77,27.14,14.08,51.40,1013.69,2040.00,2467.02,2449.41,2721.11,599.97,599.14,29.75,0000 0000 0000 0000 000000
2018-02-21 10:44:26,0.10,2.75,0.00,20.63,23.78,27.14,14.12,51.30,1013.69,2040.00,2465.58,2448.46,2719.98,599.97,599.05,29.80,0000 0000 0000 0000 000000
2018-02-21 10:49:27,0.10,2.76,0.00,20.64,23.80,27.14,14.08,51.29,1013.71,2040.00,2464.04,2447.44,2718.78,600.02,599.17,29.85,0000 0000 0000 0000 000000
2018-02-21 10:54:29,0.10,2.76,0.00,20.64,23.80,27.17,14.04,51.25,1013.73,2039.99,2462.56,2446.40,2717.59,599.83,598.93,29.90,0000 0000 0000 0000 000000
2018-02-21 10:59:30,0.09,2.77,0.00,20.66,23.80,27.17,14.09,51.27,1013.73,2039.98,2461.00,2445.34,2716.37,600.01,599.16,29.95,0000 0000 0000 0000 000000
2018-02-21 11:04:31,0.09,2.77,0.00,20.66,23.82,27.18,14.12,51.30,1013.81,2039.99,2459.57,2444.39,2715.28,599.97,599.05,30.00,0000 0000 0000 0000 000000
2018-02-21 11:09:32,0.10,2.78,0.00,20.64,23.82,27.19,14.04,51.18,1014.13,2039.99,2457.95,2443.38,2714.16,599.80,599.23,30.05,0000 0000 0000 0000 000000
2018-02-21 11:14:33,0.10,2.78,0.00,20.66,23.83,27.20,14.13,51.18,1014.17,2039.99,2456.47,2442.38,2712.92,600.21,599.44,30.10,0000 0000 0000 0000 000000
2018-02-21 11:19:34,0.10,2.79,0.00,20.68,23.85,27.19,14.12,51.25,1014.18,2039.99,2454.88,2441.36,2711.75,599.96,599.31,30.15,0000 0000 0000 0000 000000
2018-02-21 11:24:35,0.10,2.79,0.00,20.69,23.85,27.21,14.15,51.33,1014.26,2039.98,2453.51,2440.34,2710.60,600.41,599.65,30.20,0000 0000 0000 0000 000000
2018-02-21 11:29:37,0.08,2.80,0.00,20.69,23.87,27.21,14.17,51.27,1014.56,2039.99,2452.30,2439.42,2709.40,600.02,599.57,30.25,0000 0000 0000 0000 000000
2018-02-21 11:34:38,0.08,2.80,0.00,20.68,23.87,27.23,14.01,51.26,1014.65,2039.98,2450.97,2438.42,2708.21,600.04,599.74,30.30,0000 0000 0000 0000 000000
2018-02-21 11:39:39,0.10,2.81,0.00,20.71,23.89,27.24,14.00,51.20,1014.66,2039.96,2449.51,2437.35,2706.94,599.91,599.39,30.35,0000 0000 0000 0000 000000
2018-02-21 11:44:40,0.10,2.81,0.00,20.72,23.90,27.25,14.12,51.29,1014.66,2039.94,2447.88,2436.31,2705.74,600.16,599.64,30.40,0000 0000 0000 0000 000000
2018-02-21 11:49:41,0.08,2.82,0.00,20.73,23.91,27.26,14.01,51.21,1014.66,2039.86,2446.51,2435.29,2704.58,599.52,599.00,30.45,0000 0000 0000 0000 000000
2018-02-21 11:54:43,0.05,2.82,0.00,20.76,23.92,27.27,14.01,51.32,1014.68,2039.55,2445.26,2434.32,2703.36,600.09,599.58,30.50,0000 0000 0000 0000 000000
2018-02-21 11:59:44,0.08,2.82,0.00,20.76,23.93,27.28,14.04,51.28,1014.70,2039.16,2443.80,2433.38,2702.11,599.78,599.22,30.55,0000 0000 0000 0000 000000
2018-02-21 12:04:45,0.09,2.83,0.00,20.77,23.95,27.30,14.12,51.25,1015.01,2039.09,2442.42,2432.37,2700.93,600.35,600.02,30.60,0000 0000 0000 0000 000000
2018-02-21 12:09:46,0.11,2.83,0.00,20.79,23.95,27.32,14.02,51.21,1015.13,2039.07,2440.72,2431.34,2699.73,599.94,599.58,30.65,0000 0000 0000 0000 000000
2018-02-21 12:14:47,0.09,2.84,0.00,20.80,23.97,27.33,14.09,51.22,1015.11,2039.04,2439.43,2430.42,2698.60,600.07,599.69,30.70,0000 0000 0000 0000 000000
2018-02-21 12:19:49,0.08,2.84,0.00,20.79,23.98,27.35,14.13,51.35,1015.15,2039.02,2438.14,2429.53,2697.47,599.71,599.35,30.75,0000 0000 0000 0000 000000
2018-02-21 12:24:50,0.09,2.85,0.00,20.79,24.00,27.35,14.12,51.38,1015.16,2039.03,2436.82,2428.56,2696.33,600.20,599.84,30.80,0000 0000 0000 0000 000000
2018-02-21 12:29:51,0.09,2.85,0.00,20.81,24.00,27.36,13.96,51.22,1015.18,2039.02,2435.49,2427.60,2695.07,599.89,599.47,30.85,0000 0000 0000 0000 000000
2018-02-21 12:34:53,0.10,2.86,0.00,20.82,24.02,27.38,14.07,51.32,1015.31,2039.00,2433.97,2426.53,2693.88,600.10,599.79,30.90,0000 0000 0000 0000 000000
2018-02-21 12:39:54,0.10,2.86,0.00,20.84,24.02,27.38,14.12,51.25,1015.54,2039.00,2432.47,2425.55,2692.74,600.17,599.94,30.95,0000 0000 0000 0000 000000
2018-02-21 12:44:55,0.09,2.87,0.00,20.86,24.03,27.38,13.98,51.21,1015.64,2039.00,2431.00,2424.57,2691.59,599.69,599.45,31.00,0000 0000 0000 0000 000000
2018-02-21 12:49:56,0.10,2.87,0.00,20.86,24.05,27.40,14.15,51.29,1015.64,2038.99,2429.46,2423.58,2690.38,599.97,599.72,31.05,0000 0000 0000 0000 000000
2018-02-21 12:54:58,0.09,2.88,0.00,20.86,24.05,27.41,14.04,51.23,1015.65,2038.99,2427.94,2422.59,2689.32,599.69,599.51,31.11,0000 0000 0000 0000 000000